Location: Peterborough
(44.3091°N, 78.3197°W)
Time: 23:19:16
(UTC-04:00)

Tiangong - Pass Details

Date: 16 March 2026
Orbit: 376 x 385 km, 41.5° (Epoch: 20 April)

Event Time Altitude Azimuth Distance (km) Brightness Sun altitude
Exits shadow 05:15:44 24° 122° (ESE) 854 -0.1 -23.2°
Drops below altitude 10° 05:17:24 10° 99° (E) 1,405 1.5 -23.0°
Sets 05:19:36 0° 89° (E) 2,263 3.0 -22.6°
